Regional Weather Roundup
Issued by NWS Upton, NY

Current Version | Previous Version | Text Only | Print | Product List | Glossary On
Versions: 1 2 3 4 5 6 7 8 9 10 11 12 13 14 15 16 17 18 19 20 21 22 23 24 25 26 27 28 29 30 31 32 33 34 35 36 37 38 39 40 41 42 43 44 45 46 47 48 49 50
000
ASUS41 KOKX 260007
RWROKX

REGIONAL WEATHER ROUNDUP
NATIONAL WEATHER SERVICE NEW YORK NY
800 PM EDT SAT APR 25 2015

NOTE: "FAIR" INDICATES FEW OR NO CLOUDS BELOW 12,000 FEET WITH NO
SIGNIFICANT WEATHER AND/OR OBSTRUCTIONS TO VISIBILITY.

NYZ071-072-176-178-NJZ106-104-260100-
NEW YORK CITY METRO AREA


CITY           SKY/WX    TMP DP  RH WIND       PRES   REMARKS
CENTRAL PARK   CLEAR     57  27  31 CALM      29.72R
LAGUARDIA APRT MOCLDY    53  33  46 SE10      29.70R
KENNEDY INTL   PTCLDY    49  36  61 SE6       29.72R
NEWARK/LIBERTY MOCLDY    58  20  22 NW7       29.69R
BRNX BOT. GARD   N/A     52  32  46 CALM      29.73R
TETERBORO      CLEAR     57  21  24 N8        29.69R
$$

NYZ177-179-078>081-260100-
LONG ISLAND NEW YORK

CITY           SKY/WX    TMP DP  RH WIND       PRES   REMARKS
FARMINGDALE    CLEAR     46  35  65 SW7       29.73R
ISLIP          MOCLDY    46  34  62 SW10      29.71R
SHIRLEY        PTCLDY    46  35  65 SW8       29.73R
WESTHAMPTON    PTCLDY    44  34  67 SW8       29.74R
MONTAUK POINT    N/A     47  34  60 SW10G17   29.72R
$$

NYZ052-065-067-260100-
HUDSON VALLEY

CITY           SKY/WX    TMP DP  RH WIND       PRES   REMARKS
WHITE PLAINS   PTCLDY    52  24  33 NW5       29.69R
NEWBURGH       NOT AVBL
MONTGOMERY     MOCLDY    53  26  35 N6        29.70R
POUGHKEEPSIE   CLEAR     52  26  36 NE13      29.71R
ALBANY         MOCLDY    51  26  37 NE6       29.73R
$$

NJZ001-105-106-008-010-013-015-019>022-104-260100-
NEW JERSEY

CITY           SKY/WX    TMP DP  RH WIND       PRES   REMARKS
NEWARK/LIBERTY MOCLDY    58  20  22 NW7       29.69R
TETERBORO      CLEAR     57  21  24 N8        29.69R
CALDWELL       CLEAR     56  21  25 CALM      29.70R
MORRISTOWN     PTCLDY    54  23  30 N6        29.70S
SOMERVILLE     CLEAR     53  28  38 CALM      29.68R
SUSSEX         PTCLDY    53  23  31 N5        29.72R
ANDOVER          N/A     51  23  33 N3        29.70R
TRENTON        PTCLDY    53  25  33 SW5       29.70F
MILLVILLE      CLOUDY    49  34  56 VRB3      29.75S
ATLANTIC CITY  CLOUDY    51  28  41 SW10      29.74S
WRIGHTSTOWN    MOCLDY    51  27  40 SW10      29.70R
TOMS RIVER     MOCLDY    48  32  53 CALM      29.71S
BELMAR         PTCLDY    54  25  32 SW7       29.71S
$$

PAZ047>061-062-071-260100-
EASTERN PENNSYLVANIA

CITY           SKY/WX    TMP DP  RH WIND       PRES   REMARKS
PHILADELPHIA   CLOUDY    53  27  36 S12       29.74S
ALLENTOWN      PTCLDY    53  23  31 CALM      29.70S
SCRANTON       PTCLDY    51  23  33 N10       29.71R
$$

CTZ002-004>006-009-010-012-RIZ004-006-007-MAZ004-011-015-260100-
SOUTHERN NEW ENGLAND
 IN CT

CITY           SKY/WX    TMP DP  RH WIND       PRES   REMARKS
BRADLEY INTL   PTCLDY    52  25  35 N5        29.70R
HARTFORD       MOCLDY    53  25  33 VRB6      29.71R
DANBURY        CLEAR     52  22  30 N12       29.72R
WTRBRY/OXFORD  PTCLDY    48  25  40 NE9       29.72R
BRIDGEPORT     PTCLDY    51  34  52 SW7       29.70R
MERIDEN        CLEAR     54  24  31 NW7       29.71R
NEW HAVEN      PTCLDY    53  26  35 N8        29.70R
CHESTER        FAIR      54  25  32 NW6       29.70R
GROTON         MOCLDY    50  29  44 SW9       29.70R
WILLIMANTIC    CLOUDY    53  26  35 NW5       29.70R

 IN RI

CITY           SKY/WX    TMP DP  RH WIND       PRES   REMARKS
PROVIDENCE     MOCLDY    53  25  33 N8        29.69R
BLOCK ISLAND   CLOUDY    45  34  65 W16G22    29.71R
WESTERLY       CLOUDY    49  34  56 S8        29.71R

 IN MA

CITY           SKY/WX    TMP DP  RH WIND       PRES   REMARKS
BOSTON         MOCLDY    47  33  58 E8        29.72R
WORCESTER      CLOUDY    49  24  37 N9        29.70R
WESTFIELD      PTCLDY    53  25  33 NW9       29.70R
PROVINCETOWN   CLOUDY   N/A N/A N/A S7        29.72R
NANTUCKET      CLOUDY    44  34  67 SW10      29.72S
$$

ANZ330-335-338-340-345-350-353-355-260100-
COASTAL MARINE OBSERVATIONS


STATION/POSITION TIME  SKY/WX   TEMP    WIND        PRES    VSBY  WAVE
                                AIR SEA DIR/SP/G                  HT/PER
                 (UTC)          (F)     (DEG/KT/KT) (MB)    (MI)  (FT/S)
NY HARB ENTRANCE 2350            47 46  190/ 12/ 16 1005.8          2/ 4
4S FIRE IS       2303               44                N/A           3/ 4
20S FIRE ISLAND  2350            45 43  210/ 14/ 16 1006.8          2/ 4
23SW MTP         NOT AVBL
HUDSON CANYON    NOT AVBL
EXECUTION ROCKS  NOT AVBL
WESTERN LI SOUND NOT AVBL
CENTRAL LI SOUND NOT AVBL
EASTERN LI SOUND 2300            49     250/ 10/ 14   N/A
ROBBINS REEF     2300            53     150/  7/  9 1004.2
$$


>>>>>>>>>>>>>>>>>>>>>>>>>>>> KEY <<<<<<<<<<<<<<<<<<<<<<<<<<<
>                                                          <
>     SKY/WX - SKY CONDITION/PRESENT WEATHER               <
>     TMP    - TEMPERATURE IN FAHRENHEIT                   <
>     DP     - DEWPOINT IN FAHRENHEIT                      <
>     RH     - RELATIVE HUMIDITY IN PERCENT                <
>     WIND   - DIRECTION AND SPEED IN MPH                  <
>     PRES   - MEAN SEA LEVEL PRESSURE IN INCHES OF HG     <
>     WCI    - WIND CHILL INDEX                            <
>     VSB    - VISIBILITY IN MILES                         <
>     HX     - HEAT INDEX                                  <
>     TC     - TEMPERATURE IN CELSIUS                      <
>     VRB    - VARIABLE WIND DIRECTION                     <
>                                                          <
>>>>>>>>>>>>>>>>>>>>>>>>>>>> KEY <<<<<<<<<<<<<<<<<<<<<<<<<<<





USA.gov is the U.S. government's official web portal to all federal, state and local government web resources and services.